{"data":{"norad_id":66965,"epoch":"2026-09-20T13:33:04.709376Z","epoch_age_seconds":75667,"freshness":"FRESH","line1":"1 66965U 25288G   26263.56463784  .00014608  00000+0  53907-3 0  9994","line2":"2 66965  43.0021   2.6802 0001171 272.6153  87.4564 15.27594530 45091","mean_motion":15.2759453,"eccentricity":0.0001171,"inclination_deg":43.0021,"raan_deg":2.6802,"arg_perigee_deg":272.6153,"mean_anomaly_deg":87.4564,"bstar":0.00053907,"rev_number":4509,"period_min":94.265852077907,"perigee_km":482.20214854028,"apogee_km":483.80902813447,"semimajor_km":6861.1425883374,"source":"CELESTRAK","updated_at":"2026-09-21T09:00:36.063214Z"}}